Location: Recife
(8.0585°S, 34.8848°W)
Time: 20:07:06
(UTC-03:00)

A-11 Canister half - Pass Details

Date: 20 April 2026
Orbit: 1515 x 1684 km, 47.2° (Epoch: 16 May)

Event Time Altitude Azimuth Distance (km) Brightness Sun altitude
Rises 23:28:30 0° 218° (SW) 4,776 - -85.5°
Reaches altitude 10° 23:31:38 10° 216° (SW) 3,767 - -85.0°
Maximum altitude 23:41:08 76° 131° (SE) 1,576 - -83.2°
Drops below altitude 10° 23:50:21 10° 46° (NE) 3,666 - -81.3°
Sets 23:53:22 0° 44° (NE) 4,642 - -80.6°
